Time,TemperatureF,DewpointF,PressureIn,WindDirection,WindDirectionDegrees,WindSpeedMPH,WindSpeedGustMPH,Humidity,HourlyPrecipIn,Conditions,Clouds,dailyrainin,SoftwareType,DateUTC
2013-12-17 00:01:00,30.9,29.4,30.06,West,265,0.0,0.0,94,0.00,,,0.02,Wunderground v.1.15,2013-12-17 05:01:00,
2013-12-17 00:02:00,30.9,29.4,30.06,West,265,0.0,0.0,94,0.00,,,0.02,Wunderground v.1.15,2013-12-17 05:02:00,
2013-12-17 00:03:00,30.9,29.4,30.06,West,266,0.0,0.0,94,0.00,,,0.02,Wunderground v.1.15,2013-12-17 05:03:00,
2013-12-17 00:05:00,30.9,29.4,30.06,West,266,0.0,0.0,94,0.00,,,0.00,Wunderground v.1.15,2013-12-17 05:05:00,
2013-12-17 00:06:00,30.9,29.4,30.06,West,265,0.0,0.0,94,0.00,,,0.00,Wunderground v.1.15,2013-12-17 05:06:00,
2013-12-17 00:11:00,30.8,29.3,30.06,West,265,0.0,0.0,94,0.00,,,0.00,Wunderground v.1.15,2013-12-17 05:11:00,
2013-12-17 00:14:00,30.8,29.3,30.06,West,265,0.0,0.0,94,0.00,,,0.00,Wunderground v.1.15,2013-12-17 05:14:00,
2013-12-17 00:20:00,30.7,29.2,30.06,West,266,1.0,1.0,94,0.00,,,0.00,Wunderground v.1.15,2013-12-17 05:20:00,
2013-12-17 00:26:00,30.6,29.1,30.06,West,265,0.0,1.0,94,0.00,,,0.00,Wunderground v.1.15,2013-12-17 05:26:00,
2013-12-17 00:31:00,30.6,29.1,30.06,West,265,1.0,1.0,94,0.00,,,0.00,Wunderground v.1.15,2013-12-17 05:31:00,
2013-12-17 00:37:00,30.6,29.1,30.05,West,266,2.0,2.0,94,0.00,,,0.00,Wunderground v.1.15,2013-12-17 05:37:00,
2013-12-17 00:43:00,30.8,29.3,30.05,West,266,0.0,1.0,94,0.00,,,0.00,Wunderground v.1.15,2013-12-17 05:43:00,
2013-12-17 00:49:00,31.0,29.5,30.05,West,265,0.0,1.0,94,0.00,,,0.00,Wunderground v.1.15,2013-12-17 05:49:00,
2013-12-17 00:54:00,31.3,29.8,30.05,West,266,0.0,1.0,94,0.00,,,0.00,Wunderground v.1.15,2013-12-17 05:54:00,
2013-12-17 01:00:00,31.6,30.1,30.05,West,265,0.0,0.0,94,0.00,,,0.00,Wunderground v.1.15,2013-12-17 06:00:00,
2013-12-17 01:06:00,32.3,30.8,30.04,West,266,2.0,3.0,94,0.00,,,0.00,Wunderground v.1.15,2013-12-17 06:06:00,
2013-12-17 01:12:00,32.8,31.3,30.04,West,265,0.0,2.0,94,0.00,,,0.00,Wunderground v.1.15,2013-12-17 06:12:00,
2013-12-17 01:18:00,33.1,31.6,30.04,West,266,0.0,3.0,94,0.00,,,0.00,Wunderground v.1.15,2013-12-17 06:18:00,
2013-12-17 01:24:00,33.4,31.9,30.03,West,265,2.0,3.0,94,0.00,,,0.00,Wunderground v.1.15,2013-12-17 06:24:00,
2013-12-17 01:30:00,33.7,32.4,30.04,West,265,3.0,3.0,95,0.00,,,0.00,Wunderground v.1.15,2013-12-17 06:30:00,
2013-12-17 01:36:00,34.0,32.5,30.04,West,265,0.0,3.0,94,0.00,,,0.00,Wunderground v.1.15,2013-12-17 06:36:00,
2013-12-17 01:41:00,34.2,32.9,30.04,West,265,0.0,1.0,95,0.00,,,0.00,Wunderground v.1.15,2013-12-17 06:41:00,
2013-12-17 01:47:00,34.4,32.9,30.05,West,265,0.0,1.0,94,0.00,,,0.00,Wunderground v.1.15,2013-12-17 06:47:00,
2013-12-17 01:53:00,34.4,32.9,30.05,West,266,0.0,0.0,94,0.00,,,0.00,Wunderground v.1.15,2013-12-17 06:53:00,
2013-12-17 01:59:00,34.7,33.2,30.05,West,265,0.0,2.0,94,0.00,,,0.00,Wunderground v.1.15,2013-12-17 06:59:00,
2013-12-17 02:04:00,34.8,33.2,30.06,West,266,0.0,2.0,94,0.00,,,0.00,Wunderground v.1.15,2013-12-17 07:04:00,
2013-12-17 02:09:00,34.8,33.2,30.06,West,266,0.0,2.0,94,0.00,,,0.00,Wunderground v.1.15,2013-12-17 07:09:00,
2013-12-17 02:14:00,34.9,33.3,30.06,NNW,338,3.0,10.0,94,0.00,,,0.00,Wunderground v.1.15,2013-12-17 07:14:00,
2013-12-17 02:19:00,35.3,34.0,30.06,NW,313,4.0,10.0,95,0.00,,,0.00,Wunderground v.1.15,2013-12-17 07:19:00,
2013-12-17 02:24:00,35.9,34.3,30.06,NW,314,0.0,2.0,94,0.00,,,0.00,Wunderground v.1.15,2013-12-17 07:24:00,
2013-12-17 02:29:00,36.1,34.8,30.06,West,268,0.0,5.0,95,0.00,,,0.00,Wunderground v.1.15,2013-12-17 07:29:00,
2013-12-17 02:34:00,36.2,34.6,30.07,West,268,0.0,1.0,94,0.00,,,0.00,Wunderground v.1.15,2013-12-17 07:34:00,
2013-12-17 02:39:00,36.3,34.7,30.07,West,266,0.0,4.0,94,0.00,,,0.00,Wunderground v.1.15,2013-12-17 07:39:00,
2013-12-17 02:44:00,36.3,34.7,30.07,West,273,0.0,4.0,94,0.00,,,0.00,Wunderground v.1.15,2013-12-17 07:44:00,
2013-12-17 02:49:00,36.4,34.8,30.07,West,273,2.0,4.0,94,0.00,,,0.00,Wunderground v.1.15,2013-12-17 07:49:00,
2013-12-17 02:54:00,36.5,34.9,30.06,West,271,0.0,4.0,94,0.00,,,0.00,Wunderground v.1.15,2013-12-17 07:54:00,
2013-12-17 02:59:00,36.7,35.1,30.07,West,270,0.0,6.0,94,0.00,,,0.00,Wunderground v.1.15,2013-12-17 07:59:00,
2013-12-17 03:04:00,36.8,35.2,30.07,WNW,295,0.0,5.0,94,0.00,,,0.00,Wunderground v.1.15,2013-12-17 08:04:00,
2013-12-17 03:09:00,36.8,35.0,30.07,WNW,295,0.0,5.0,93,0.00,,,0.00,Wunderground v.1.15,2013-12-17 08:09:00,
2013-12-17 03:14:00,36.8,35.0,30.07,WNW,295,0.0,2.0,93,0.00,,,0.00,Wunderground v.1.15,2013-12-17 08:14:00,
2013-12-17 03:19:00,36.9,35.1,30.07,WNW,295,0.0,2.0,93,0.00,,,0.00,Wunderground v.1.15,2013-12-17 08:19:00,
2013-12-17 03:24:00,37.0,35.2,30.07,WNW,296,0.0,3.0,93,0.00,,,0.00,Wunderground v.1.15,2013-12-17 08:24:00,
2013-12-17 03:29:00,37.0,35.2,30.07,WNW,296,0.0,3.0,93,0.00,,,0.00,Wunderground v.1.15,2013-12-17 08:29:00,
2013-12-17 03:34:00,37.1,35.0,30.07,WNW,297,0.0,4.0,92,0.00,,,0.00,Wunderground v.1.15,2013-12-17 08:34:00,
2013-12-17 03:39:00,37.2,35.1,30.07,WNW,297,0.0,4.0,92,0.00,,,0.00,Wunderground v.1.15,2013-12-17 08:39:00,
2013-12-17 03:44:00,37.2,34.8,30.07,NW,315,0.0,5.0,91,0.00,,,0.00,Wunderground v.1.15,2013-12-17 08:44:00,
2013-12-17 03:49:00,37.2,34.8,30.07,NW,304,0.0,5.0,91,0.00,,,0.00,Wunderground v.1.15,2013-12-17 08:49:00,
2013-12-17 03:54:00,37.1,34.7,30.07,NW,305,0.0,1.0,91,0.00,,,0.00,Wunderground v.1.15,2013-12-17 08:54:00,
2013-12-17 03:59:00,37.1,34.7,30.06,West,264,1.0,5.0,91,0.00,,,0.00,Wunderground v.1.15,2013-12-17 08:59:00,
2013-12-17 04:04:00,36.9,34.2,30.07,West,265,3.0,6.0,90,0.00,,,0.00,Wunderground v.1.15,2013-12-17 09:04:00,
2013-12-17 04:09:00,36.8,34.1,30.07,WNW,294,0.0,9.0,90,0.00,,,0.00,Wunderground v.1.15,2013-12-17 09:09:00,
2013-12-17 04:15:00,36.6,33.7,30.07,WNW,298,0.0,5.0,89,0.00,,,0.00,Wunderground v.1.15,2013-12-17 09:15:00,
2013-12-17 04:19:00,36.4,33.5,30.07,NW,307,2.0,8.0,89,0.00,,,0.00,Wunderground v.1.15,2013-12-17 09:19:00,
2013-12-17 04:25:00,36.2,33.0,30.07,NW,304,3.0,5.0,88,0.00,,,0.00,Wunderground v.1.15,2013-12-17 09:25:00,
2013-12-17 04:30:00,36.1,32.9,30.07,WNW,288,2.0,5.0,88,0.00,,,0.00,Wunderground v.1.15,2013-12-17 09:30:00,
2013-12-17 04:35:00,36.0,32.5,30.07,West,275,2.0,4.0,87,0.00,,,0.00,Wunderground v.1.15,2013-12-17 09:35:00,
2013-12-17 04:40:00,35.8,32.3,30.07,NW,311,0.0,4.0,87,0.00,,,0.00,Wunderground v.1.15,2013-12-17 09:40:00,
2013-12-17 04:45:00,35.5,32.0,30.07,WNW,286,0.0,4.0,87,0.00,,,0.00,Wunderground v.1.15,2013-12-17 09:45:00,
2013-12-17 04:50:00,35.3,31.8,30.07,WNW,286,0.0,4.0,87,0.00,,,0.00,Wunderground v.1.15,2013-12-17 09:50:00,
2013-12-17 04:55:00,35.0,31.5,30.07,WNW,291,3.0,3.0,87,0.00,,,0.00,Wunderground v.1.15,2013-12-17 09:55:00,
2013-12-17 05:00:00,34.7,31.5,30.08,WNW,292,1.0,3.0,88,0.00,,,0.00,Wunderground v.1.15,2013-12-17 10:00:00,
2013-12-17 05:05:00,34.4,31.2,30.08,NW,317,3.0,4.0,88,0.00,,,0.00,Wunderground v.1.15,2013-12-17 10:05:00,
2013-12-17 05:10:00,34.4,31.5,30.08,NNW,336,4.0,8.0,89,0.00,,,0.00,Wunderground v.1.15,2013-12-17 10:10:00,
2013-12-17 05:15:00,34.4,31.5,30.09,NNW,342,2.0,10.0,89,0.00,,,0.00,Wunderground v.1.15,2013-12-17 10:15:00,
2013-12-17 05:20:00,34.4,31.5,30.09,NNW,342,1.0,10.0,89,0.00,,,0.00,Wunderground v.1.15,2013-12-17 10:20:00,
2013-12-17 05:25:00,34.4,31.2,30.09,NNW,331,2.0,10.0,88,0.00,,,0.00,Wunderground v.1.15,2013-12-17 10:25:00,
2013-12-17 05:30:00,34.4,31.2,30.09,NNW,330,2.0,10.0,88,0.00,,,0.00,Wunderground v.1.15,2013-12-17 10:30:00,
2013-12-17 05:35:00,34.4,31.2,30.09,NNW,330,3.0,4.0,88,0.00,,,0.00,Wunderground v.1.15,2013-12-17 10:35:00,
2013-12-17 05:40:00,34.2,31.0,30.09,NNW,348,2.0,6.0,88,0.00,,,0.00,Wunderground v.1.15,2013-12-17 10:40:00,
2013-12-17 05:45:00,34.0,30.8,30.09,NNW,337,3.0,8.0,88,0.00,,,0.00,Wunderground v.1.15,2013-12-17 10:45:00,
2013-12-17 05:50:00,33.8,30.3,30.10,NNW,344,1.0,4.0,87,0.00,,,0.00,Wunderground v.1.15,2013-12-17 10:50:00,
2013-12-17 05:55:00,33.6,30.1,30.11,NNW,339,5.0,10.0,87,0.00,,,0.00,Wunderground v.1.15,2013-12-17 10:55:00,
2013-12-17 06:00:00,33.4,30.2,30.13,NW,324,4.0,4.0,88,0.00,,,0.00,Wunderground v.1.15,2013-12-17 11:00:00,
2013-12-17 06:05:00,33.4,30.2,30.14,NNW,334,4.0,10.0,88,0.00,,,0.00,Wunderground v.1.15,2013-12-17 11:05:00,
2013-12-17 06:10:00,33.3,30.1,30.13,NNW,332,3.0,4.0,88,0.00,,,0.00,Wunderground v.1.15,2013-12-17 11:10:00,
2013-12-17 06:15:00,33.2,30.0,30.12,NW,318,3.0,6.0,88,0.00,,,0.00,Wunderground v.1.15,2013-12-17 11:15:00,
2013-12-17 06:20:00,33.1,29.9,30.15,WNW,298,3.0,5.0,88,0.00,,,0.00,Wunderground v.1.15,2013-12-17 11:20:00,
2013-12-17 06:25:00,33.0,29.8,30.14,WNW,298,1.0,5.0,88,0.00,,,0.00,Wunderground v.1.15,2013-12-17 11:25:00,
2013-12-17 06:30:00,32.9,29.7,30.13,NW,307,2.0,2.0,88,0.00,,,0.00,Wunderground v.1.15,2013-12-17 11:30:00,
2013-12-17 06:35:00,32.7,29.5,30.12,NW,307,0.0,3.0,88,0.00,,,0.00,Wunderground v.1.15,2013-12-17 11:35:00,
2013-12-17 06:40:00,32.6,29.4,30.12,WNW,303,0.0,1.0,88,0.00,,,0.00,Wunderground v.1.15,2013-12-17 11:40:00,
2013-12-17 06:45:00,32.4,29.2,30.12,NNW,340,3.0,7.0,88,0.00,,,0.00,Wunderground v.1.15,2013-12-17 11:45:00,
2013-12-17 06:50:00,32.3,29.1,30.12,NW,325,2.0,3.0,88,0.00,,,0.00,Wunderground v.1.15,2013-12-17 11:50:00,
2013-12-17 06:55:00,32.2,29.0,30.12,NW,326,0.0,3.0,88,0.00,,,0.00,Wunderground v.1.15,2013-12-17 11:55:00,
2013-12-17 07:00:00,32.1,29.2,30.11,West,274,5.0,6.0,89,0.00,,,0.00,Wunderground v.1.15,2013-12-17 12:00:00,
2013-12-17 07:05:00,32.0,29.1,30.11,WSW,237,3.0,6.0,89,0.00,,,0.00,Wunderground v.1.15,2013-12-17 12:05:00,
2013-12-17 07:10:00,32.0,29.1,30.11,SW,231,3.0,4.0,89,0.00,,,0.00,Wunderground v.1.15,2013-12-17 12:10:00,
2013-12-17 07:15:00,31.9,29.0,30.11,SW,231,1.0,6.0,89,0.00,,,0.00,Wunderground v.1.15,2013-12-17 12:15:00,
2013-12-17 07:20:00,31.8,29.2,30.11,SW,232,2.0,3.0,90,0.00,,,0.00,Wunderground v.1.15,2013-12-17 12:20:00,
2013-12-17 07:25:00,31.7,29.1,30.11,WSW,240,0.0,4.0,90,0.00,,,0.00,Wunderground v.1.15,2013-12-17 12:25:00,
2013-12-17 07:30:00,31.7,29.1,30.12,WSW,240,0.0,2.0,90,0.00,,,0.00,Wunderground v.1.15,2013-12-17 12:30:00,
2013-12-17 07:35:00,31.7,29.1,30.12,WSW,241,1.0,5.0,90,0.00,,,0.00,Wunderground v.1.15,2013-12-17 12:35:00,
2013-12-17 07:40:00,31.6,29.0,30.12,WSW,242,0.0,2.0,90,0.00,,,0.00,Wunderground v.1.15,2013-12-17 12:40:00,
2013-12-17 07:45:00,31.6,29.0,30.13,WSW,242,0.0,2.0,90,0.00,,,0.00,Wunderground v.1.15,2013-12-17 12:45:00,
2013-12-17 07:50:00,31.5,28.9,30.13,WSW,245,3.0,3.0,90,0.00,,,0.00,Wunderground v.1.15,2013-12-17 12:50:00,
2013-12-17 07:55:00,31.5,28.9,30.13,WSW,250,2.0,4.0,90,0.00,,,0.00,Wunderground v.1.15,2013-12-17 12:55:00,
2013-12-17 08:00:00,31.4,28.8,30.14,WSW,250,0.0,1.0,90,0.00,,,0.00,Wunderground v.1.15,2013-12-17 13:00:00,
2013-12-17 08:05:00,31.4,28.8,30.14,WSW,250,1.0,3.0,90,0.00,,,0.00,Wunderground v.1.15,2013-12-17 13:05:00,
2013-12-17 08:10:00,31.5,28.9,30.13,WSW,249,1.0,2.0,90,0.00,,,0.00,Wunderground v.1.15,2013-12-17 13:10:00,
2013-12-17 08:15:00,31.5,28.9,30.12,WSW,250,0.0,2.0,90,0.00,,,0.00,Wunderground v.1.15,2013-12-17 13:15:00,
2013-12-17 08:20:00,31.5,28.9,30.13,WSW,250,0.0,0.0,90,0.00,,,0.00,Wunderground v.1.15,2013-12-17 13:20:00,
2013-12-17 08:26:00,31.4,28.8,30.13,WSW,252,0.0,4.0,90,0.00,,,0.00,Wunderground v.1.15,2013-12-17 13:26:00,
2013-12-17 08:31:00,31.4,28.8,30.13,WSW,252,0.0,3.0,90,0.00,,,0.00,Wunderground v.1.15,2013-12-17 13:31:00,
2013-12-17 08:36:00,31.3,28.7,30.13,WSW,255,1.0,5.0,90,0.00,,,0.00,Wunderground v.1.15,2013-12-17 13:36:00,
2013-12-17 08:41:00,31.2,28.6,30.13,WSW,255,3.0,3.0,90,0.00,,,0.00,Wunderground v.1.15,2013-12-17 13:41:00,
2013-12-17 08:46:00,31.2,28.6,30.14,West,279,2.0,5.0,90,0.00,,,0.00,Wunderground v.1.15,2013-12-17 13:46:00,
2013-12-17 08:51:00,31.2,28.6,30.14,WNW,290,0.0,3.0,90,0.00,,,0.00,Wunderground v.1.15,2013-12-17 13:51:00,
2013-12-17 08:56:00,31.2,28.6,30.15,NW,315,3.0,5.0,90,0.00,,,0.00,Wunderground v.1.15,2013-12-17 13:56:00,
2013-12-17 09:01:00,31.2,28.6,30.15,NNW,328,1.0,4.0,90,0.00,,,0.00,Wunderground v.1.15,2013-12-17 14:01:00,
2013-12-17 09:06:00,31.2,28.6,30.15,NNW,328,1.0,4.0,90,0.00,,,0.00,Wunderground v.1.15,2013-12-17 14:06:00,
2013-12-17 09:11:00,31.3,29.0,30.15,NW,323,2.0,3.0,91,0.00,,,0.00,Wunderground v.1.15,2013-12-17 14:11:00,
2013-12-17 09:16:00,31.2,28.9,30.15,West,267,3.0,7.0,91,0.00,,,0.00,Wunderground v.1.15,2013-12-17 14:16:00,
2013-12-17 09:21:00,31.2,28.6,30.15,West,267,3.0,5.0,90,0.00,,,0.00,Wunderground v.1.15,2013-12-17 14:21:00,
2013-12-17 09:26:00,31.2,28.6,30.15,NW,317,2.0,5.0,90,0.00,,,0.00,Wunderground v.1.15,2013-12-17 14:26:00,
2013-12-17 09:31:00,31.2,28.9,30.15,NW,321,3.0,4.0,91,0.00,,,0.00,Wunderground v.1.15,2013-12-17 14:31:00,
2013-12-17 09:32:00,31.2,28.9,30.15,NW,321,2.0,4.0,91,0.00,,,0.00,Wunderground v.1.15,2013-12-17 14:32:00,
2013-12-17 09:37:00,31.3,29.0,30.15,NW,321,2.0,5.0,91,0.00,,,0.00,Wunderground v.1.15,2013-12-17 14:37:00,
2013-12-17 09:42:00,31.3,29.0,30.15,NW,321,1.0,2.0,91,0.00,,,0.00,Wunderground v.1.15,2013-12-17 14:42:00,
2013-12-17 09:47:00,31.5,29.2,30.15,NW,321,3.0,4.0,91,0.00,,,0.00,Wunderground v.1.15,2013-12-17 14:47:00,
2013-12-17 09:52:00,31.6,29.3,30.15,NNW,328,2.0,5.0,91,0.00,,,0.00,Wunderground v.1.15,2013-12-17 14:52:00,
2013-12-17 09:57:00,31.6,29.3,30.15,NNW,342,3.0,6.0,91,0.00,,,0.00,Wunderground v.1.15,2013-12-17 14:57:00,
2013-12-17 10:02:00,31.6,29.0,30.15,NNW,342,0.0,3.0,90,0.00,,,0.00,Wunderground v.1.15,2013-12-17 15:02:00,
2013-12-17 10:07:00,31.6,29.0,30.15,NNW,332,3.0,6.0,90,0.00,,,0.00,Wunderground v.1.15,2013-12-17 15:07:00,
2013-12-17 10:12:00,31.7,29.1,30.15,NNW,333,3.0,4.0,90,0.00,,,0.00,Wunderground v.1.15,2013-12-17 15:12:00,
2013-12-17 10:17:00,31.9,29.3,30.15,NNW,341,4.0,7.0,90,0.00,,,0.00,Wunderground v.1.15,2013-12-17 15:17:00,
2013-12-17 10:22:00,31.9,29.3,30.14,NNW,342,2.0,4.0,90,0.00,,,0.00,Wunderground v.1.15,2013-12-17 15:22:00,
2013-12-17 10:27:00,31.9,29.0,30.14,NNW,342,2.0,4.0,89,0.00,,,0.00,Wunderground v.1.15,2013-12-17 15:27:00,
2013-12-17 10:32:00,32.0,29.1,30.14,NNW,342,0.0,3.0,89,0.00,,,0.00,Wunderground v.1.15,2013-12-17 15:32:00,
2013-12-17 10:37:00,32.1,29.2,30.15,NNW,342,1.0,5.0,89,0.00,,,0.00,Wunderground v.1.15,2013-12-17 15:37:00,
2013-12-17 10:42:00,32.3,29.4,30.14,NNW,342,3.0,3.0,89,0.00,,,0.00,Wunderground v.1.15,2013-12-17 15:42:00,
2013-12-17 10:47:00,32.4,29.5,30.15,NNW,340,3.0,3.0,89,0.00,,,0.00,Wunderground v.1.15,2013-12-17 15:47:00,
2013-12-17 10:52:00,32.4,29.2,30.15,NW,325,2.0,3.0,88,0.00,,,0.00,Wunderground v.1.15,2013-12-17 15:52:00,
2013-12-17 10:57:00,32.3,29.1,30.14,NW,323,2.0,4.0,88,0.00,,,0.00,Wunderground v.1.15,2013-12-17 15:57:00,
2013-12-17 11:02:00,32.3,29.1,30.14,NW,323,2.0,3.0,88,0.00,,,0.00,Wunderground v.1.15,2013-12-17 16:02:00,
2013-12-17 11:07:00,32.3,29.1,30.14,NW,323,2.0,5.0,88,0.00,,,0.00,Wunderground v.1.15,2013-12-17 16:07:00,
2013-12-17 11:12:00,32.2,29.0,30.14,NW,323,1.0,3.0,88,0.00,,,0.00,Wunderground v.1.15,2013-12-17 16:12:00,
2013-12-17 11:17:00,32.3,29.1,30.14,NW,322,1.0,3.0,88,0.00,,,0.00,Wunderground v.1.15,2013-12-17 16:17:00,
2013-12-17 11:22:00,32.5,29.6,30.14,NW,311,2.0,4.0,89,0.00,,,0.00,Wunderground v.1.15,2013-12-17 16:22:00,
2013-12-17 11:27:00,32.5,29.3,30.14,WNW,299,1.0,5.0,88,0.00,,,0.00,Wunderground v.1.15,2013-12-17 16:27:00,
2013-12-17 11:32:00,32.5,29.3,30.14,WNW,299,1.0,3.0,88,0.00,,,0.00,Wunderground v.1.15,2013-12-17 16:32:00,
2013-12-17 11:37:00,32.5,29.3,30.13,WNW,298,2.0,4.0,88,0.00,,,0.00,Wunderground v.1.15,2013-12-17 16:37:00,
2013-12-17 11:42:00,32.5,29.6,30.13,WNW,298,1.0,3.0,89,0.00,,,0.00,Wunderground v.1.15,2013-12-17 16:42:00,
2013-12-17 11:47:00,32.6,29.4,30.13,WNW,298,0.0,3.0,88,0.00,,,0.00,Wunderground v.1.15,2013-12-17 16:47:00,
2013-12-17 11:52:00,32.6,29.4,30.13,WNW,296,1.0,2.0,88,0.00,,,0.00,Wunderground v.1.15,2013-12-17 16:52:00,
2013-12-17 11:57:00,32.6,29.4,30.13,WNW,298,0.0,4.0,88,0.00,,,0.00,Wunderground v.1.15,2013-12-17 16:57:00,
2013-12-17 12:02:00,32.7,29.5,30.13,WNW,298,2.0,4.0,88,0.00,,,0.00,Wunderground v.1.15,2013-12-17 17:02:00,
2013-12-17 12:07:00,32.6,29.2,30.12,NW,314,2.0,7.0,87,0.00,,,0.00,Wunderground v.1.15,2013-12-17 17:07:00,
2013-12-17 12:12:00,32.6,29.2,30.13,NW,319,2.0,6.0,87,0.00,,,0.00,Wunderground v.1.15,2013-12-17 17:12:00,
2013-12-17 12:17:00,32.6,29.2,30.13,NNW,329,3.0,9.0,87,0.00,,,0.00,Wunderground v.1.15,2013-12-17 17:17:00,
2013-12-17 12:22:00,32.6,28.9,30.12,NW,323,2.0,9.0,86,0.00,,,0.00,Wunderground v.1.15,2013-12-17 17:22:00,
2013-12-17 12:27:00,32.6,28.9,30.11,NNW,327,0.0,9.0,86,0.00,,,0.00,Wunderground v.1.15,2013-12-17 17:27:00,
2013-12-17 12:32:00,32.6,28.9,30.11,NW,321,1.0,5.0,86,0.00,,,0.00,Wunderground v.1.15,2013-12-17 17:32:00,
2013-12-17 12:37:00,32.8,29.4,30.11,NW,321,2.0,5.0,87,0.00,,,0.00,Wunderground v.1.15,2013-12-17 17:37:00,
2013-12-17 12:42:00,32.9,29.2,30.11,NNW,340,2.0,7.0,86,0.00,,,0.00,Wunderground v.1.15,2013-12-17 17:42:00,
2013-12-17 12:47:00,32.9,28.9,30.11,West,281,4.0,7.0,85,0.00,,,0.00,Wunderground v.1.15,2013-12-17 17:47:00,
2013-12-17 12:52:00,32.8,28.8,30.11,West,280,4.0,7.0,85,0.00,,,0.00,Wunderground v.1.15,2013-12-17 17:52:00,
2013-12-17 12:57:00,32.6,28.9,30.11,WNW,289,2.0,7.0,86,0.00,,,0.00,Wunderground v.1.15,2013-12-17 17:57:00,
2013-12-17 13:02:00,32.7,28.7,30.11,NW,305,4.0,6.0,85,0.00,,,0.00,Wunderground v.1.15,2013-12-17 18:02:00,
2013-12-17 13:07:00,32.8,28.8,30.11,WNW,289,1.0,6.0,85,0.00,,,0.00,Wunderground v.1.15,2013-12-17 18:07:00,
2013-12-17 13:12:00,32.8,28.8,30.11,West,278,6.0,7.0,85,0.00,,,0.01,Wunderground v.1.15,2013-12-17 18:12:00,
2013-12-17 13:17:00,33.0,29.0,30.11,West,276,4.0,7.0,85,0.00,,,0.01,Wunderground v.1.15,2013-12-17 18:17:00,
2013-12-17 13:22:00,33.2,29.2,30.11,West,271,1.0,7.0,85,0.00,,,0.01,Wunderground v.1.15,2013-12-17 18:22:00,
2013-12-17 13:27:00,33.3,29.0,30.11,WNW,288,2.0,7.0,84,0.00,,,0.01,Wunderground v.1.15,2013-12-17 18:27:00,
2013-12-17 13:32:00,33.4,29.1,30.11,WNW,282,3.0,9.0,84,0.00,,,0.01,Wunderground v.1.15,2013-12-17 18:32:00,
2013-12-17 13:37:00,33.7,29.7,30.11,West,277,2.0,9.0,85,0.00,,,0.01,Wunderground v.1.15,2013-12-17 18:37:00,
2013-12-17 13:42:00,33.9,29.3,30.11,West,279,4.0,9.0,83,0.00,,,0.01,Wunderground v.1.15,2013-12-17 18:42:00,
2013-12-17 13:48:00,34.0,29.1,30.11,NW,305,4.0,9.0,82,0.00,,,0.01,Wunderground v.1.15,2013-12-17 18:48:00,
2013-12-17 13:53:00,33.8,28.9,30.11,WNW,289,9.0,10.0,82,0.00,,,0.01,Wunderground v.1.15,2013-12-17 18:53:00,
2013-12-17 13:58:00,33.6,28.7,30.11,West,271,5.0,10.0,82,0.00,,,0.01,Wunderground v.1.15,2013-12-17 18:58:00,
2013-12-17 14:03:00,33.6,28.7,30.11,West,280,2.0,9.0,82,0.00,,,0.01,Wunderground v.1.15,2013-12-17 19:03:00,
2013-12-17 14:08:00,33.4,28.5,30.12,West,278,2.0,11.0,82,0.00,,,0.01,Wunderground v.1.15,2013-12-17 19:08:00,
2013-12-17 14:13:00,33.3,28.7,30.12,West,271,10.0,11.0,83,0.00,,,0.01,Wunderground v.1.15,2013-12-17 19:13:00,
2013-12-17 14:18:00,33.1,28.5,30.12,WSW,250,5.0,11.0,83,0.00,,,0.01,Wunderground v.1.15,2013-12-17 19:18:00,
2013-12-17 14:23:00,33.1,28.8,30.12,West,259,7.0,10.0,84,0.00,,,0.01,Wunderground v.1.15,2013-12-17 19:23:00,
2013-12-17 14:28:00,33.2,28.6,30.11,SW,235,11.0,13.0,83,0.00,,,0.01,Wunderground v.1.15,2013-12-17 19:28:00,
2013-12-17 14:33:00,33.1,28.5,30.11,West,277,4.0,10.0,83,0.00,,,0.01,Wunderground v.1.15,2013-12-17 19:33:00,
2013-12-17 14:38:00,33.2,28.6,30.12,WSW,257,3.0,10.0,83,0.00,,,0.01,Wunderground v.1.15,2013-12-17 19:38:00,
2013-12-17 14:43:00,33.5,28.6,30.12,West,276,3.0,10.0,82,0.00,,,0.01,Wunderground v.1.15,2013-12-17 19:43:00,
2013-12-17 14:48:00,34.3,29.4,30.13,West,263,6.0,10.0,82,0.00,,,0.01,Wunderground v.1.15,2013-12-17 19:48:00,
2013-12-17 14:53:00,35.2,29.6,30.13,West,261,6.0,11.0,80,0.00,,,0.01,Wunderground v.1.15,2013-12-17 19:53:00,
2013-12-17 14:58:00,35.7,29.2,30.13,West,274,6.0,12.0,77,0.00,,,0.01,Wunderground v.1.15,2013-12-17 19:58:00,
2013-12-17 15:03:00,36.0,29.5,30.13,WSW,255,5.0,9.0,77,0.00,,,0.01,Wunderground v.1.15,2013-12-17 20:03:00,
2013-12-17 15:08:00,36.3,29.8,30.13,West,279,3.0,10.0,77,0.00,,,0.01,Wunderground v.1.15,2013-12-17 20:08:00,
2013-12-17 15:13:00,36.4,28.9,30.13,NW,311,5.0,13.0,74,0.00,,,0.01,Wunderground v.1.15,2013-12-17 20:13:00,
2013-12-17 15:18:00,36.3,28.8,30.13,NNW,334,7.0,14.0,74,0.00,,,0.01,Wunderground v.1.15,2013-12-17 20:18:00,
2013-12-17 15:23:00,36.4,29.2,30.14,NW,313,3.0,9.0,75,0.00,,,0.01,Wunderground v.1.15,2013-12-17 20:23:00,
2013-12-17 15:28:00,36.8,28.6,30.14,WNW,288,4.0,13.0,72,0.00,,,0.01,Wunderground v.1.15,2013-12-17 20:28:00,
2013-12-17 15:33:00,36.2,28.4,30.15,NNW,328,10.0,11.0,73,0.00,,,0.01,Wunderground v.1.15,2013-12-17 20:33:00,
2013-12-17 15:38:00,35.5,28.0,30.15,West,275,0.0,11.0,74,0.00,,,0.01,Wunderground v.1.15,2013-12-17 20:38:00,
2013-12-17 15:43:00,35.1,28.0,30.15,NW,313,1.0,6.0,75,0.00,,,0.01,Wunderground v.1.15,2013-12-17 20:43:00,
2013-12-17 15:48:00,35.6,28.5,30.15,NW,315,5.0,6.0,75,0.00,,,0.01,Wunderground v.1.15,2013-12-17 20:48:00,
2013-12-17 15:53:00,36.0,28.8,30.15,WNW,293,2.0,5.0,75,0.00,,,0.01,Wunderground v.1.15,2013-12-17 20:53:00,
2013-12-17 15:58:00,36.3,28.5,30.15,NW,315,5.0,11.0,73,0.00,,,0.01,Wunderground v.1.15,2013-12-17 20:58:00,
2013-12-17 16:03:00,36.3,28.1,30.15,NW,305,3.0,5.0,72,0.00,,,0.01,Wunderground v.1.15,2013-12-17 21:03:00,
2013-12-17 16:08:00,36.3,28.8,30.15,West,271,0.0,9.0,74,0.00,,,0.01,Wunderground v.1.15,2013-12-17 21:08:00,
2013-12-17 16:13:00,36.6,28.1,30.15,WNW,290,1.0,6.0,71,0.00,,,0.01,Wunderground v.1.15,2013-12-17 21:13:00,
2013-12-17 16:18:00,36.8,28.3,30.15,West,276,3.0,7.0,71,0.00,,,0.01,Wunderground v.1.15,2013-12-17 21:18:00,
2013-12-17 16:23:00,36.7,28.2,30.15,WNW,300,0.0,9.0,71,0.00,,,0.01,Wunderground v.1.15,2013-12-17 21:23:00,
2013-12-17 16:28:00,36.8,28.3,30.15,WSW,237,7.0,9.0,71,0.00,,,0.01,Wunderground v.1.15,2013-12-17 21:28:00,
2013-12-17 16:33:00,36.7,27.8,30.16,NW,315,2.0,6.0,70,0.00,,,0.01,Wunderground v.1.15,2013-12-17 21:33:00,
2013-12-17 16:38:00,36.4,27.9,30.16,NW,317,4.0,11.0,71,0.00,,,0.01,Wunderground v.1.15,2013-12-17 21:38:00,
2013-12-17 16:43:00,36.1,27.3,30.17,NNW,334,3.0,9.0,70,0.00,,,0.01,Wunderground v.1.15,2013-12-17 21:43:00,
2013-12-17 16:48:00,35.5,27.4,30.17,North,1,5.0,9.0,72,0.00,,,0.01,Wunderground v.1.15,2013-12-17 21:48:00,
2013-12-17 16:53:00,35.1,27.3,30.17,NNW,337,5.0,10.0,73,0.00,,,0.01,Wunderground v.1.15,2013-12-17 21:53:00,
2013-12-17 16:58:00,34.8,27.0,30.17,NNW,345,1.0,10.0,73,0.00,,,0.01,Wunderground v.1.15,2013-12-17 21:58:00,
2013-12-17 17:03:00,34.4,26.6,30.17,NNW,330,4.0,5.0,73,0.00,,,0.01,Wunderground v.1.15,2013-12-17 22:03:00,
2013-12-17 17:08:00,33.9,26.5,30.17,NNW,334,4.0,13.0,74,0.00,,,0.01,Wunderground v.1.15,2013-12-17 22:08:00,
2013-12-17 17:13:00,33.5,26.4,30.17,NW,305,2.0,5.0,75,0.00,,,0.01,Wunderground v.1.15,2013-12-17 22:13:00,
2013-12-17 17:16:00,33.3,26.5,30.17,NNW,333,2.0,6.0,76,0.00,,,0.01,Wunderground v.1.15,2013-12-17 22:16:00,
2013-12-17 17:21:00,33.0,26.3,30.17,NNW,336,1.0,3.0,76,0.00,,,0.01,Wunderground v.1.15,2013-12-17 22:21:00,
2013-12-17 17:26:00,32.8,26.4,30.17,WNW,288,1.0,6.0,77,0.00,,,0.01,Wunderground v.1.15,2013-12-17 22:26:00,
2013-12-17 17:31:00,32.5,26.1,30.17,WNW,283,2.0,7.0,77,0.00,,,0.01,Wunderground v.1.15,2013-12-17 22:31:00,
2013-12-17 17:36:00,32.4,26.3,30.17,WNW,284,3.0,9.0,78,0.00,,,0.01,Wunderground v.1.15,2013-12-17 22:36:00,
2013-12-17 17:41:00,32.3,26.5,30.17,West,264,1.0,7.0,79,0.00,,,0.01,Wunderground v.1.15,2013-12-17 22:41:00,
2013-12-17 17:46:00,32.1,26.3,30.17,West,265,0.0,7.0,79,0.00,,,0.01,Wunderground v.1.15,2013-12-17 22:46:00,
2013-12-17 17:51:00,31.9,26.1,30.17,West,265,2.0,2.0,79,0.00,,,0.01,Wunderground v.1.15,2013-12-17 22:51:00,
2013-12-17 17:56:00,31.7,26.2,30.17,West,274,2.0,6.0,80,0.00,,,0.01,Wunderground v.1.15,2013-12-17 22:56:00,
2013-12-17 18:01:00,31.5,26.0,30.17,West,271,1.0,2.0,80,0.00,,,0.01,Wunderground v.1.15,2013-12-17 23:01:00,
2013-12-17 18:06:00,31.3,25.8,30.17,West,270,0.0,4.0,80,0.00,,,0.01,Wunderground v.1.15,2013-12-17 23:06:00,
2013-12-17 18:11:00,31.2,26.0,30.18,West,271,2.0,5.0,81,0.00,,,0.01,Wunderground v.1.15,2013-12-17 23:11:00,
2013-12-17 18:16:00,31.1,26.0,30.18,West,265,2.0,5.0,81,0.00,,,0.01,Wunderground v.1.15,2013-12-17 23:16:00,
2013-12-17 18:21:00,31.0,25.9,30.18,West,261,2.0,4.0,81,0.00,,,0.01,Wunderground v.1.15,2013-12-17 23:21:00,
2013-12-17 18:26:00,30.8,25.7,30.18,West,260,0.0,4.0,81,0.00,,,0.01,Wunderground v.1.15,2013-12-17 23:26:00,
2013-12-17 18:31:00,30.6,25.5,30.19,West,266,2.0,4.0,81,0.00,,,0.01,Wunderground v.1.15,2013-12-17 23:31:00,
2013-12-17 18:36:00,30.4,25.6,30.19,West,266,2.0,4.0,82,0.00,,,0.01,Wunderground v.1.15,2013-12-17 23:36:00,
2013-12-17 18:41:00,30.2,25.7,30.19,West,266,0.0,1.0,83,0.00,,,0.01,Wunderground v.1.15,2013-12-17 23:41:00,
2013-12-17 18:46:00,30.0,25.5,30.19,West,265,0.0,4.0,83,0.00,,,0.01,Wunderground v.1.15,2013-12-17 23:46:00,
2013-12-17 18:51:00,29.7,26.9,30.20,West,261,2.0,3.0,89,0.00,,,0.01,Wunderground v.1.15,2013-12-17 23:51:00,
2013-12-17 18:56:00,29.4,24.9,30.20,West,267,2.0,4.0,83,0.00,,,0.01,Wunderground v.1.15,2013-12-17 23:56:00,
2013-12-17 19:01:00,29.3,25.1,30.20,West,265,4.0,6.0,84,0.00,,,0.01,Wunderground v.1.15,2013-12-18 00:01:00,
2013-12-17 19:06:00,29.3,25.4,30.20,West,265,3.0,6.0,85,0.00,,,0.01,Wunderground v.1.15,2013-12-18 00:06:00,
2013-12-17 19:11:00,29.4,25.4,30.20,West,265,2.0,4.0,85,0.00,,,0.01,Wunderground v.1.15,2013-12-18 00:11:00,
2013-12-17 19:16:00,29.4,25.4,30.20,West,264,2.0,5.0,85,0.00,,,0.01,Wunderground v.1.15,2013-12-18 00:16:00,
2013-12-17 19:21:00,29.7,25.7,30.21,West,261,0.0,5.0,85,0.00,,,0.01,Wunderground v.1.15,2013-12-18 00:21:00,
2013-12-17 19:26:00,29.6,25.6,30.21,West,261,0.0,5.0,85,0.00,,,0.01,Wunderground v.1.15,2013-12-18 00:26:00,
2013-12-17 19:31:00,29.5,25.5,30.22,West,262,0.0,2.0,85,0.00,,,0.01,Wunderground v.1.15,2013-12-18 00:31:00,
2013-12-17 19:36:00,29.3,25.4,30.22,West,261,2.0,5.0,85,0.00,,,0.01,Wunderground v.1.15,2013-12-18 00:36:00,
2013-12-17 19:41:00,29.4,25.7,30.22,West,264,3.0,5.0,86,0.00,,,0.01,Wunderground v.1.15,2013-12-18 00:41:00,
2013-12-17 19:46:00,29.8,26.4,30.22,West,274,1.0,6.0,87,0.00,,,0.01,Wunderground v.1.15,2013-12-18 00:46:00,
2013-12-17 19:51:00,30.3,26.9,30.22,West,272,1.0,10.0,87,0.00,,,0.01,Wunderground v.1.15,2013-12-18 00:51:00,
2013-12-17 19:56:00,30.6,27.2,30.23,WNW,286,3.0,10.0,87,0.00,,,0.01,Wunderground v.1.15,2013-12-18 00:56:00,
2013-12-17 20:01:00,31.0,27.6,30.23,WNW,288,4.0,7.0,87,0.00,,,0.01,Wunderground v.1.15,2013-12-18 01:01:00,
2013-12-17 20:06:00,31.4,27.7,30.23,West,261,2.0,9.0,86,0.00,,,0.01,Wunderground v.1.15,2013-12-18 01:06:00,
2013-12-17 20:11:00,31.7,27.7,30.23,WNW,287,0.0,4.0,85,0.00,,,0.01,Wunderground v.1.15,2013-12-18 01:11:00,
2013-12-17 20:17:00,31.8,27.8,30.23,WSW,251,4.0,6.0,85,0.00,,,0.01,Wunderground v.1.15,2013-12-18 01:17:00,
2013-12-17 20:22:00,31.9,27.9,30.24,West,270,3.0,5.0,85,0.00,,,0.01,Wunderground v.1.15,2013-12-18 01:22:00,
2013-12-17 20:27:00,31.9,27.9,30.24,West,277,3.0,5.0,85,0.00,,,0.01,Wunderground v.1.15,2013-12-18 01:27:00,
2013-12-17 20:32:00,31.9,27.9,30.24,West,271,4.0,5.0,85,0.00,,,0.01,Wunderground v.1.15,2013-12-18 01:32:00,
2013-12-17 20:37:00,31.9,27.9,30.24,NNW,333,1.0,9.0,85,0.00,,,0.01,Wunderground v.1.15,2013-12-18 01:37:00,
2013-12-17 20:42:00,32.0,28.0,30.24,West,278,3.0,5.0,85,0.00,,,0.01,Wunderground v.1.15,2013-12-18 01:42:00,
2013-12-17 20:47:00,31.9,27.9,30.24,WNW,288,1.0,7.0,85,0.00,,,0.01,Wunderground v.1.15,2013-12-18 01:47:00,
2013-12-17 20:52:00,31.8,27.5,30.24,North,357,2.0,4.0,84,0.00,,,0.01,Wunderground v.1.15,2013-12-18 01:52:00,
2013-12-17 20:57:00,31.6,27.6,30.24,West,275,3.0,6.0,85,0.00,,,0.01,Wunderground v.1.15,2013-12-18 01:57:00,
2013-12-17 21:02:00,31.4,27.4,30.24,WNW,288,0.0,2.0,85,0.00,,,0.01,Wunderground v.1.15,2013-12-18 02:02:00,
2013-12-17 21:07:00,31.1,27.1,30.24,WNW,288,0.0,3.0,85,0.00,,,0.01,Wunderground v.1.15,2013-12-18 02:07:00,
2013-12-17 21:12:00,31.0,27.0,30.24,NW,315,1.0,4.0,85,0.00,,,0.01,Wunderground v.1.15,2013-12-18 02:12:00,
2013-12-17 21:17:00,30.8,27.1,30.24,NW,315,0.0,4.0,86,0.00,,,0.01,Wunderground v.1.15,2013-12-18 02:17:00,
2013-12-17 21:22:00,30.5,26.5,30.25,NW,315,0.0,1.0,85,0.00,,,0.01,Wunderground v.1.15,2013-12-18 02:22:00,
2013-12-17 21:27:00,30.2,26.5,30.25,NW,310,2.0,3.0,86,0.00,,,0.01,Wunderground v.1.15,2013-12-18 02:27:00,
2013-12-17 21:32:00,30.0,26.6,30.25,West,267,0.0,4.0,87,0.00,,,0.01,Wunderground v.1.15,2013-12-18 02:32:00,
2013-12-17 21:37:00,29.8,26.4,30.25,West,267,0.0,4.0,87,0.00,,,0.01,Wunderground v.1.15,2013-12-18 02:37:00,
2013-12-17 21:42:00,29.6,26.2,30.25,West,281,0.0,0.0,87,0.00,,,0.01,Wunderground v.1.15,2013-12-18 02:42:00,
2013-12-17 21:47:00,29.4,26.0,30.25,WNW,282,0.0,3.0,87,0.00,,,0.01,Wunderground v.1.15,2013-12-18 02:47:00,
2013-12-17 21:52:00,29.2,25.8,30.25,WNW,282,0.0,0.0,87,0.00,,,0.01,Wunderground v.1.15,2013-12-18 02:52:00,
2013-12-17 21:57:00,29.0,25.9,30.26,WNW,282,2.0,3.0,88,0.00,,,0.01,Wunderground v.1.15,2013-12-18 02:57:00,
2013-12-17 22:02:00,28.8,25.7,30.25,WNW,282,0.0,2.0,88,0.00,,,0.01,Wunderground v.1.15,2013-12-18 03:02:00,
2013-12-17 22:07:00,28.7,25.6,30.26,WNW,282,0.0,4.0,88,0.00,,,0.01,Wunderground v.1.15,2013-12-18 03:07:00,
2013-12-17 22:12:00,28.5,25.4,30.26,WNW,282,1.0,3.0,88,0.00,,,0.01,Wunderground v.1.15,2013-12-18 03:12:00,
2013-12-17 22:17:00,28.3,25.2,30.26,WSW,257,1.0,5.0,88,0.00,,,0.01,Wunderground v.1.15,2013-12-18 03:17:00,
2013-12-17 22:22:00,28.2,25.4,30.26,WSW,257,2.0,3.0,89,0.00,,,0.01,Wunderground v.1.15,2013-12-18 03:22:00,
2013-12-17 22:27:00,28.0,25.2,30.26,WSW,256,2.0,3.0,89,0.00,,,0.01,Wunderground v.1.15,2013-12-18 03:27:00,
2013-12-17 22:32:00,28.0,25.2,30.26,WSW,256,0.0,4.0,89,0.00,,,0.01,Wunderground v.1.15,2013-12-18 03:32:00,
2013-12-17 22:37:00,27.9,25.1,30.26,WSW,257,0.0,4.0,89,0.00,,,0.01,Wunderground v.1.15,2013-12-18 03:37:00,
2013-12-17 22:42:00,27.8,25.0,30.26,WSW,257,0.0,1.0,89,0.00,,,0.01,Wunderground v.1.15,2013-12-18 03:42:00,
2013-12-17 22:47:00,27.8,25.2,30.26,WSW,257,2.0,4.0,90,0.00,,,0.01,Wunderground v.1.15,2013-12-18 03:47:00,
2013-12-17 22:52:00,27.6,25.1,30.26,WSW,257,0.0,2.0,90,0.00,,,0.01,Wunderground v.1.15,2013-12-18 03:52:00,
2013-12-17 22:57:00,27.5,25.0,30.26,WSW,257,1.0,4.0,90,0.00,,,0.01,Wunderground v.1.15,2013-12-18 03:57:00,
2013-12-17 23:02:00,27.6,25.1,30.26,WSW,257,0.0,3.0,90,0.00,,,0.01,Wunderground v.1.15,2013-12-18 04:02:00,
2013-12-17 23:07:00,27.5,25.0,30.26,WSW,257,0.0,3.0,90,0.00,,,0.01,Wunderground v.1.15,2013-12-18 04:07:00,
2013-12-17 23:12:00,27.4,24.9,30.26,WSW,257,0.0,1.0,90,0.00,,,0.01,Wunderground v.1.15,2013-12-18 04:12:00,
2013-12-17 23:17:00,27.3,24.8,30.26,West,263,3.0,3.0,90,0.00,,,0.01,Wunderground v.1.15,2013-12-18 04:17:00,
2013-12-17 23:22:00,27.0,24.5,30.26,West,263,0.0,3.0,90,0.00,,,0.01,Wunderground v.1.15,2013-12-18 04:22:00,
2013-12-17 23:27:00,27.0,24.5,30.26,West,265,2.0,3.0,90,0.00,,,0.01,Wunderground v.1.15,2013-12-18 04:27:00,
2013-12-17 23:32:00,26.9,24.4,30.26,West,264,2.0,2.0,90,0.00,,,0.01,Wunderground v.1.15,2013-12-18 04:32:00,
2013-12-17 23:37:00,26.9,24.4,30.26,West,267,1.0,4.0,90,0.00,,,0.01,Wunderground v.1.15,2013-12-18 04:37:00,
2013-12-17 23:42:00,26.7,24.2,30.26,West,267,0.0,1.0,90,0.00,,,0.01,Wunderground v.1.15,2013-12-18 04:42:00,
2013-12-17 23:47:00,26.6,24.3,30.26,West,268,1.0,4.0,91,0.00,,,0.01,Wunderground v.1.15,2013-12-18 04:47:00,
2013-12-17 23:52:00,26.5,24.2,30.26,West,268,0.0,0.0,91,0.00,,,0.01,Wunderground v.1.15,2013-12-18 04:52:00,
2013-12-17 23:57:00,26.5,24.2,30.26,West,268,0.0,2.0,91,0.00,,,0.01,Wunderground v.1.15,2013-12-18 04:57:00,